[[{"header":{"parameterUnit":"m.s-1","parameterCategory":1,"la1":30.2991,"la2":30.254,"lo1":-89.0895,"lo2":-89.0444,"dx":0.0017,"dy":0.0017,"nx":28,"ny":28,"refTime":"2022-12-16T09:00:00:Z","depth":0,"parameterNumber":2,"parameterNumberName":"U-component_of_WINDS"},"data":[0,0,0,0,0,0,0,0,0,0,0,0,0,0,0,0,0,0,0,0,0,0,0,0,0,0,0,0,0,0,0,0,0,0,0,0,0,0,0,0,0,0,0,0,0,0,0,0,0,0,0,0,0,0,0,0,0,0,0.9729,0.9729,0,0.9716,0.9716,0.9716,0.9702,0.9702,0.9702,0.9701,0.9687,0.9687,0.9687,0,0,0,0,0,0,0,0,0,0,0,0,0,0.974,0.974,0.9729,0.9729,0.9729,0.9716,0.9716,0.9716,0.9702,0.9702,0.9702,0.9701,0.9687,0.9687,0.9687,0,0,0,0,0,0,0,0,0,0,0,0,0,0.9732,0.974,0.9729,0.972,0.9719,0.9716,0.9716,0.9716,0.9702,0.9702,0.9702,0.9701,0.9687,0.9687,0.9687,0.9691,0,0,0.9686,0.9686,0,0,0,0,0,0,0,0,0.9733,0.9732,0.9722,0.9721,0.972,0.9711,0.9715,0.9708,0.9702,0.9709,0.9701,0.9701,0.9695,0.9694,0.9692,0.969,0.969,0.9686,0.9686,0.9686,0.9686,0,0,0,0,0,0,0,0.9733,0.9732,0.9724,0.9721,0.972,0.9717,0.9715,0.9714,0.9704,0.9708,0.9707,0.9706,0.9695,0.9693,0.9692,0.969,0.9686,0.9686,0.9686,0.9685,0.9691,0.9692,0,0,0,0,0,0,0.9735,0.9733,0.9724,0.9723,0.9726,0.9717,0.9715,0.9714,0.9704,0.9702,0.9706,0.9705,0.9693,0.9692,0.9691,0.9696,0.9686,0.9685,0.9685,0.9691,0.9691,0.9692,0,0,0,0,0,0,0.9736,0.9735,0.9725,0.9728,0.9726,0.9717,0.9715,0.9714,0.9712,0.9702,0.97,0.9706,0.9693,0.9692,0.9692,0.9695,0.9685,0.9685,0.9691,0.9691,0.9692,0.9705,0,0,0,0,0,0,0.9736,0.9735,0.9736,0.9728,0.9726,0.9725,0.9716,0.9714,0.9712,0.971,0.9702,0.97,0.9693,0.9692,0.9691,0.9695,0.9685,0.969,0.9691,0.9691,0.9704,0.9706,0.9707,0,0,0,0,0,0.9736,0.974,0.9736,0.9735,0.9728,0.9725,0.9724,0.9716,0.9712,0.9713,0.9707,0.97,0.9695,0.9692,0.9691,0.9695,0.969,0.9691,0.9691,0.9703,0.9706,0.9707,0,0,0,0,0,0,0.9748,0.9739,0.9735,0.9736,0.9732,0.9723,0.9724,0.9719,0.9715,0.9714,0.9704,0.9703,0.9703,0.9699,0.9696,0.9699,0.9692,0.9692,0.9701,0.9703,0.9705,0.9705,0.9685,0,0,0,0,0,0.9751,0.975,0.9742,0.9744,0.9742,0.9734,0.9732,0.9727,0.9722,0.972,0.9714,0.9709,0.9706,0.9705,0.9702,0.9704,0.9702,0.9706,0.9708,0.9709,0.9709,0.9711,0.9712,0.9694,0.9694,0.9694,0,0,0.9757,0.9751,0.9751,0.9746,0.9742,0.9741,0.9732,0.9731,0.973,0.9719,0.9719,0.9715,0.9708,0.971,0.971,0.9706,0.9714,0.971,0.9711,0.9711,0.9712,0.9713,0.9715,0.9695,0.9695,0.9695,0,0,0.9766,0.9762,0.9764,0.976,0.9755,0.975,0.975,0.9743,0.974,0.9739,0.9731,0.973,0.9726,0.9722,0.9719,0.973,0.9723,0.9729,0.9737,0.9738,0.974,0.9741,0.9744,0.9746,0.973,0.973,0.973,0,0.9773,0.9772,0.9765,0.9765,0.9763,0.9754,0.9755,0.9752,0.9746,0.9745,0.9741,0.9736,0.9731,0.9732,0.9735,0.9733,0.9733,0.9729,0.974,0.9741,0.9742,0.9745,0.9747,0.973,0.973,0.973,0.973,0,0.9781,0.9781,0.9782,0.9777,0.9776,0.9776,0.9769,0.9769,0.9764,0.9759,0.9759,0.9754,0.975,0.975,0.9744,0.9749,0.9747,0.9742,0.9735,0.9745,0.9748,0.9749,0.9731,0.9731,0.9731,0.9731,0,0,0.9796,0.9789,0.9789,0.9787,0.9781,0.978,0.9781,0.9778,0.9778,0.9774,0.9774,0.9772,0.9767,0.9764,0.9759,0.9761,0.9769,0.9755,0.9755,0.9757,0.9774,0.9778,0.9779,0.9765,0.9765,0.9766,0.9775,0,0.9804,0.9805,0.9799,0.9801,0.9801,0.9793,0.9794,0.979,0.9786,0.9785,0.9781,0.9779,0.9773,0.9772,0.9773,0.9768,0.9772,0.9767,0.9765,0.9765,0.9765,0.9781,0.9784,0.9793,0.9776,0.9776,0.9776,0,0.9813,0.9811,0.9813,0.9808,0.9808,0.9809,0.9806,0.9805,0.9801,0.9798,0.9796,0.979,0.9791,0.9785,0.9785,0.9782,0.9781,0.9778,0.9778,0.9777,0.977,0.9779,0.9795,0.9796,0.9778,0.9778,0.9777,0,0.9824,0.9821,0.9823,0.9821,0.9815,0.9816,0.9814,0.981,0.9809,0.9806,0.9805,0.9803,0.9801,0.98,0.9794,0.979,0.9795,0.9788,0.9792,0.9792,0.9792,0.9792,0.9808,0.9793,0.9793,0.9793,0.9793,0,0.9833,0.9834,0.9827,0.9828,0.983,0.9824,0.9825,0.9822,0.9819,0.9819,0.9813,0.9813,0.9805,0.9804,0.98,0.9801,0.98,0.9798,0.9796,0.9798,0.9798,0.9796,0.9795,0.9793,0.9793,0.9793,0.9793,0,0.9844,0.9839,0.984,0.9835,0.9834,0.9835,0.9831,0.9832,0.9828,0.9828,0.9828,0.9822,0.9821,0.9815,0.9812,0.9809,0.9812,0.9809,0.9813,0.9812,0.9816,0.9815,0.983,0.9832,0.9817,0.9817,0.9817,0,0.9849,0.985,0.9846,0.9846,0.9844,0.9844,0.9843,0.9837,0.9837,0.9833,0.9834,0.9833,0.9831,0.983,0.9825,0.9823,0.9821,0.9826,0.982,0.9822,0.982,0.982,0.982,0.9827,0.9827,0.9827,0.9827,0,0.986,0.9858,0.9857,0.9856,0.9855,0.9854,0.9852,0.9852,0.9846,0.9846,0.9845,0.9844,0.9842,0.984,0.9838,0.9835,0.983,0.983,0.983,0.9831,0.9833,0.9832,0.9816,0.9829,0.9829,0.9828,0.9828,0.9828,0.9868,0.9869,0.9866,0.9866,0.9864,0.9863,0.9863,0.986,0.9859,0.9858,0.9855,0.9854,0.9851,0.9848,0.9846,0.9846,0.9843,0.9844,0.9844,0.9844,0.9845,0.9834,0.9845,0.9845,0.9845,0.9845,0.9845,0,0.9878,0.9876,0.9876,0.9874,0.9874,0.987,0.9868,0.9868,0.9868,0.9866,0.9865,0.9864,0.9864,0.986,0.9858,0.9859,0.9856,0.9858,0.9858,0.9857,0.9848,0.9847,0.986,0.986,0.986,0.986,0.986,0.986,0.9882,0.9884,0.9882,0.9883,0.9881,0.9881,0.988,0.9879,0.9878,0.9878,0.9877,0.9875,0.9872,0.9871,0.987,0.9868,0.9868,0.9871,0.9869,0.9859,0.9858,0.9856,0.9856,0.9871,0.9871,0.9878,0.9878,0.9878]},{"header":{"parameterUnit":"m.s-1","parameterCategory":1,"la1":30.2991,"la2":30.254,"lo1":-89.0895,"lo2":-89.0444,"dx":0.0017,"dy":0.0017,"nx":28,"ny":28,"refTime":"2022-12-16T09:00:00:Z","depth":0,"parameterNumber":3,"parameterNumberName":"V-component_of_WINDS"},"data":[0,0,0,0,0,0,0,0,0,0,0,0,0,0,0,0,0,0,0,0,0,0,0,0,0,0,0,0,0,0,0,0,0,0,0,0,0,0,0,0,0,0,0,0,0,0,0,0,0,0,0,0,0,0,0,0,0,0,-3.6311,-3.6313,0,-3.6489,-3.6491,-3.6493,-3.6461,-3.6457,-3.6454,-3.6451,-3.6633,-3.664,-3.6648,0,0,0,0,0,0,0,0,0,0,0,0,0,-3.5942,-3.5949,-3.6311,-3.6313,-3.6316,-3.6489,-3.6491,-3.6494,-3.6461,-3.6457,-3.6454,-3.645,-3.663,-3.664,-3.6649,0,0,0,0,0,0,0,0,0,0,0,0,0,-3.6109,-3.5951,-3.6311,-3.632,-3.6323,-3.6488,-3.6491,-3.6494,-3.6462,-3.6457,-3.6453,-3.6448,-3.6627,-3.6639,-3.665,-3.6817,0,0,-3.6686,-3.6691,0,0,0,0,0,0,0,0,-3.61,-3.6123,-3.6317,-3.632,-3.6323,-3.6448,-3.6428,-3.6603,-3.6463,-3.6409,-3.6451,-3.6446,-3.6575,-3.6591,-3.6635,-3.6826,-3.6834,-3.6687,-3.6694,-3.6699,-3.6702,0,0,0,0,0,0,0,-3.6088,-3.6115,-3.6381,-3.6319,-3.6323,-3.6315,-3.6334,-3.6461,-3.6517,-3.6414,-3.6412,-3.6433,-3.6576,-3.6623,-3.6639,-3.6836,-3.6687,-3.6697,-3.6704,-3.6709,-3.7173,-3.7179,0,0,0,0,0,0,-3.6074,-3.6106,-3.6376,-3.6387,-3.6198,-3.6326,-3.6347,-3.6413,-3.6515,-3.6526,-3.6437,-3.6431,-3.6606,-3.6625,-3.6645,-3.6848,-3.6699,-3.671,-3.6717,-3.7168,-3.7175,-3.718,0,0,0,0,0,0,-3.6066,-3.6098,-3.6369,-3.6246,-3.628,-3.6337,-3.6412,-3.6419,-3.6466,-3.6533,-3.6543,-3.6475,-3.6603,-3.6628,-3.6775,-3.6853,-3.6715,-3.6726,-3.7162,-3.717,-3.7178,-3.7254,0,0,0,0,0,0,-3.6056,-3.6096,-3.616,-3.6248,-3.6286,-3.6496,-3.6417,-3.6426,-3.6486,-3.648,-3.6571,-3.6582,-3.6601,-3.6758,-3.6786,-3.6867,-3.6735,-3.7155,-3.7166,-3.7175,-3.7245,-3.7264,-3.728,0,0,0,0,0,-3.6043,-3.6174,-3.6163,-3.6196,-3.6368,-3.6501,-3.6523,-3.6542,-3.6493,-3.6558,-3.6601,-3.6579,-3.684,-3.6773,-3.6805,-3.689,-3.715,-3.7163,-3.7174,-3.7237,-3.726,-3.7279,0,0,0,0,0,0,-3.6094,-3.6186,-3.6175,-3.6339,-3.6412,-3.6495,-3.6577,-3.6566,-3.6655,-3.6645,-3.6666,-3.6686,-3.6835,-3.6877,-3.6801,-3.7057,-3.6988,-3.7007,-3.7025,-3.7047,-3.7064,-3.7051,-3.6745,0,0,0,0,0,-3.6125,-3.6225,-3.6299,-3.6437,-3.6474,-3.652,-3.6578,-3.6587,-3.6664,-3.6694,-3.6748,-3.6823,-3.6922,-3.6987,-3.7081,-3.725,-3.727,-3.7325,-3.7342,-3.7356,-3.7373,-3.7466,-3.7491,-3.722,-3.722,-3.722,0,0,-3.6189,-3.6251,-3.6313,-3.6449,-3.6507,-3.661,-3.6546,-3.6658,-3.6735,-3.6711,-3.6853,-3.6895,-3.698,-3.7139,-3.7211,-3.7178,-3.7452,-3.7372,-3.7383,-3.7391,-3.7481,-3.7506,-3.7529,-3.7228,-3.7227,-3.7225,0,0,-3.6358,-3.6415,-3.6536,-3.6596,-3.6684,-3.6713,-3.6742,-3.6827,-3.6854,-3.6997,-3.6981,-3.7073,-3.7243,-3.7304,-3.7358,-3.755,-3.7534,-3.758,-3.7672,-3.7763,-3.7784,-3.7803,-3.7872,-3.7897,-3.7596,-3.7597,-3.7597,0,-3.6426,-3.6582,-3.66,-3.6714,-3.6774,-3.6758,-3.688,-3.6937,-3.7052,-3.7093,-3.7055,-3.7268,-3.7324,-3.7497,-3.7544,-3.7588,-3.7622,-3.757,-3.7779,-3.7799,-3.7817,-3.7883,-3.7909,-3.7602,-3.7601,-3.7601,-3.76,0,-3.6661,-3.6769,-3.6856,-3.6968,-3.7038,-3.7155,-3.7191,-3.726,-3.7262,-3.7296,-3.7441,-3.7508,-3.7616,-3.7657,-3.7661,-3.7831,-3.7808,-3.7774,-3.7705,-3.7847,-3.791,-3.7936,-3.7609,-3.7607,-3.7606,-3.7604,0,0,-3.6869,-3.6989,-3.7021,-3.7071,-3.7168,-3.7251,-3.7368,-3.7474,-3.7533,-3.7612,-3.7711,-3.7855,-3.7825,-3.7885,-3.7895,-3.7975,-3.8124,-3.7931,-3.7934,-3.7965,-3.8316,-3.8341,-3.837,-3.8113,-3.8118,-3.8122,-3.8309,0,-3.7047,-3.7254,-3.7274,-3.7459,-3.7559,-3.7545,-3.7646,-3.7716,-3.7751,-3.784,-3.7878,-3.798,-3.7932,-3.7968,-3.8046,-3.8089,-3.8194,-3.8076,-3.8205,-3.8209,-3.8185,-3.8402,-3.8429,-3.8603,-3.8333,-3.8337,-3.834,0,-3.7284,-3.7371,-3.7566,-3.7649,-3.7691,-3.7782,-3.7881,-3.7967,-3.8046,-3.8065,-3.8133,-3.8133,-3.8253,-3.8179,-3.8345,-3.8264,-3.8318,-3.8347,-3.8354,-3.8368,-3.8284,-3.8422,-3.8658,-3.8685,-3.8379,-3.8376,-3.8373,0,-3.7416,-3.7582,-3.772,-3.7764,-3.7864,-3.7928,-3.7972,-3.8047,-3.8109,-3.8196,-3.8236,-3.8335,-3.839,-3.8466,-3.8492,-3.8436,-3.8658,-3.8586,-3.8677,-3.8677,-3.8725,-3.8722,-3.8974,-3.8759,-3.8758,-3.8758,-3.8757,0,-3.7614,-3.7734,-3.7781,-3.7866,-3.8,-3.8021,-3.8154,-3.8195,-3.8261,-3.8354,-3.8347,-3.8434,-3.8464,-3.8556,-3.8577,-3.8712,-3.8736,-3.8755,-3.8759,-3.8756,-3.8754,-3.8792,-3.8781,-3.8765,-3.8763,-3.8762,-3.8761,0,-3.7785,-3.7821,-3.7971,-3.8053,-3.8076,-3.8172,-3.8242,-3.8324,-3.8356,-3.8474,-3.8503,-3.8554,-3.8662,-3.8696,-3.8826,-3.8841,-3.8998,-3.8992,-3.8972,-3.8973,-3.9063,-3.9054,-3.9349,-3.9389,-3.9147,-3.9149,-3.9151,0,-3.7909,-3.8002,-3.8094,-3.8155,-3.8202,-3.8302,-3.8366,-3.839,-3.8457,-3.8554,-3.8624,-3.8731,-3.8818,-3.8992,-3.9041,-3.914,-3.9137,-3.9233,-3.9152,-3.9146,-3.9139,-3.9134,-3.9143,-3.9248,-3.9251,-3.9253,-3.9255,0,-3.8127,-3.814,-3.8232,-3.8331,-3.8408,-3.8487,-3.8563,-3.8614,-3.8649,-3.8724,-3.8835,-3.8902,-3.9035,-3.9142,-3.9243,-3.9289,-3.9279,-3.928,-3.9307,-3.9305,-3.929,-3.93,-3.9014,-3.9273,-3.9271,-3.927,-3.9269,-3.9268,-3.8279,-3.836,-3.8438,-3.8541,-3.86,-3.8672,-3.8753,-3.8796,-3.8889,-3.8999,-3.9007,-3.9127,-3.9204,-3.9339,-3.939,-3.9484,-3.9456,-3.9495,-3.9505,-3.9514,-3.9522,-3.9274,-3.9502,-3.9502,-3.9501,-3.9501,-3.9501,0,-3.8496,-3.8545,-3.864,-3.8747,-3.8828,-3.881,-3.8894,-3.8963,-3.9068,-3.9141,-3.9227,-3.9354,-3.9457,-3.9514,-3.9617,-3.9682,-3.9679,-3.9708,-3.9704,-3.9715,-3.954,-3.9507,-3.9708,-3.9708,-3.9708,-3.9708,-3.9708,-3.9708,-3.8619,-3.8756,-3.8778,-3.8944,-3.8993,-3.911,-3.9159,-3.9225,-3.9283,-3.9426,-3.9512,-3.9548,-3.9614,-3.9722,-3.9816,-3.983,-3.9869,-3.9901,-3.9912,-3.9748,-3.9727,-3.9707,-3.9676,-3.9909,-3.9909,-4.0079,-4.0081,-4.0082]}]]